Location: ??
(35.5052°N, 139.7262°E)
Time: 10:31:43
(UTC+00:00)

Envisat - Pass Details

Date: 27 September 2021
Orbit: 764 x 766 km, 98.2° (Epoch: 20 October)

Event Time Altitude Azimuth Distance (km) Brightness Sun altitude
Rises 19:26:44 0° 18° (NNE) 3,235 6.6 -14.4°
Reaches altitude 10° 19:29:07 10° 23° (NNE) 2,305 5.9 -13.9°
Maximum altitude 19:34:05 54° 100° (E) 928 3.8 -12.9°
Drops below altitude 10° 19:39:00 10° 177° (S) 2,290 5.4 -11.9°
Sets 19:41:21 0° 182° (S) 3,212 6.1 -11.4°
